BAW591 LIMC-EGLL

Flight info

Callsign BAW591
Flight time 1h 34m
Altitude 36000
Route PEPAG DCT ABESI N851 UTAVO DCT ELMUR DCT RIPUS DCT DITON DCT HOC DCT LUL DCT RLP DCT ROTSI DCT KOTUN DCT NINAL DCT ABNUR DCT DIMAL DCT ALESO
Aircraft A320/M-SDE3FGHIRWY/LB1

Departure

Time 2026-05-07 08:28
Airport Milan Malpensa International Airport (LIMC)

Arrival

Time 2026-05-07 10:03
Airport London Heathrow Airport (EGLL)
Time Latitude Longitude Altitude Speed Heading
2026-05-07 07:49 45.62706 8.71631 741 ft 0 kts 349°
2026-05-07 08:11 45.62693 8.71634 741 ft 4 kts 349°
2026-05-07 08:12 45.62666 8.71641 741 ft 4 kts 352°
2026-05-07 08:12 45.62649 8.71644 739 ft 4 kts
2026-05-07 08:12 45.62625 8.71637 739 ft 4 kts 46°
2026-05-07 08:12 45.62625 8.71645 740 ft 4 kts 68°
2026-05-07 08:13 45.62630 8.71683 741 ft 4 kts 80°
2026-05-07 08:13 45.62634 8.71713 741 ft 0 kts 79°
2026-05-07 08:17 45.62634 8.71715 741 ft 1 kts 79°
2026-05-07 08:17 45.62644 8.71791 741 ft 11 kts 79°
2026-05-07 08:17 45.62647 8.71808 741 ft 0 kts 79°
2026-05-07 08:17 45.62647 8.71809 741 ft 0 kts 79°
2026-05-07 08:18 45.62647 8.71810 741 ft 0 kts 79°
2026-05-07 08:18 45.62648 8.71815 741 ft 2 kts 79°
2026-05-07 08:18 45.62649 8.71824 741 ft 3 kts 79°
2026-05-07 08:18 45.62661 8.71914 741 ft 12 kts 79°
2026-05-07 08:19 45.62650 8.72025 740 ft 13 kts 144°
2026-05-07 08:19 45.62559 8.72056 741 ft 15 kts 169°
2026-05-07 08:19 45.62452 8.72085 739 ft 16 kts 169°
2026-05-07 08:19 45.62333 8.72117 741 ft 18 kts 169°
2026-05-07 08:20 45.62200 8.72153 740 ft 20 kts 169°
2026-05-07 08:20 45.62056 8.72193 740 ft 22 kts 169°
2026-05-07 08:20 45.61897 8.72236 741 ft 24 kts 168°
2026-05-07 08:20 45.61728 8.72285 740 ft 25 kts 169°
2026-05-07 08:21 45.61569 8.72329 741 ft 23 kts 169°
2026-05-07 08:21 45.61421 8.72377 741 ft 17 kts 148°
2026-05-07 08:21 45.61332 8.72494 741 ft 17 kts 146°
2026-05-07 08:21 45.61216 8.72537 741 ft 18 kts 169°
2026-05-07 08:22 45.61117 8.72563 740 ft 0 kts 170°
2026-05-07 08:22 45.61114 8.72563 741 ft 0 kts 170°
2026-05-07 08:22 45.61110 8.72564 741 ft 0 kts 170°
2026-05-07 08:22 45.61099 8.72569 741 ft 6 kts 161°
2026-05-07 08:23 45.61074 8.72625 741 ft 3 kts 98°
2026-05-07 08:23 45.61084 8.72718 742 ft 15 kts 79°
2026-05-07 08:23 45.61104 8.72866 743 ft 16 kts 78°
2026-05-07 08:23 45.61133 8.73032 740 ft 18 kts 59°
2026-05-07 08:24 45.61237 8.73149 742 ft 20 kts 33°
2026-05-07 08:24 45.61350 8.73257 740 ft 18 kts 27°
2026-05-07 08:24 45.61477 8.73247 740 ft 19 kts 349°
2026-05-07 08:24 45.61598 8.73232 741 ft 13 kts 31°
2026-05-07 08:25 45.61628 8.73363 741 ft 15 kts 80°
2026-05-07 08:25 45.61626 8.73446 741 ft 3 kts 111°
2026-05-07 08:25 45.61615 8.73472 740 ft 0 kts 123°
2026-05-07 08:25 45.61614 8.73474 741 ft 1 kts 123°
2026-05-07 08:26 45.61584 8.73626 741 ft 12 kts 82°
2026-05-07 08:26 45.61613 8.73736 739 ft 8 kts 17°
2026-05-07 08:26 45.61628 8.73734 739 ft 0 kts 349°
2026-05-07 08:27 45.61647 8.73729 739 ft 9 kts 349°
2026-05-07 08:27 45.61847 8.73674 738 ft 61 kts 349°
2026-05-07 08:28 45.62465 8.73503 741 ft 118 kts 349°
2026-05-07 08:28 45.63427 8.73238 741 ft 162 kts 349°
2026-05-07 08:28 45.64580 8.72937 1152 ft 171 kts 355°
2026-05-07 08:28 45.65727 8.73329 1732 ft 175 kts 34°
2026-05-07 08:29 45.66557 8.74682 2071 ft 194 kts 67°
2026-05-07 08:29 45.67032 8.76569 2512 ft 207 kts 63°
2026-05-07 08:29 45.67963 8.78138 3170 ft 210 kts 38°
2026-05-07 08:29 45.69109 8.79435 3940 ft 210 kts 38°
2026-05-07 08:30 45.70258 8.80740 4683 ft 212 kts 38°
2026-05-07 08:30 45.71406 8.82059 5417 ft 213 kts 39°
2026-05-07 08:30 45.72449 8.83654 5864 ft 231 kts 66°
2026-05-07 08:30 45.72620 8.85938 6454 ft 240 kts 105°
2026-05-07 08:31 45.71829 8.88052 7137 ft 245 kts 127°
2026-05-07 08:31 45.70803 8.90016 7898 ft 248 kts 127°
2026-05-07 08:31 45.69915 8.92218 8338 ft 269 kts 107°
2026-05-07 08:31 45.69817 8.94942 8789 ft 283 kts 76°
2026-05-07 08:32 45.70713 8.97438 9479 ft 288 kts 45°
2026-05-07 08:32 45.72388 8.98970 10182 ft 291 kts 17°
2026-05-07 08:32 45.74418 8.99711 10458 ft 312 kts 12°
2026-05-07 08:32 45.76618 9.00399 10645 ft 334 kts 11°
2026-05-07 08:33 45.78900 9.01075 11150 ft 343 kts 11°
2026-05-07 08:33 45.81278 9.01779 11810 ft 347 kts 11°
2026-05-07 08:33 45.83654 9.02495 12500 ft 350 kts 11°
2026-05-07 08:33 45.86014 9.03224 13178 ft 354 kts 11°
2026-05-07 08:34 45.88438 9.03986 13849 ft 358 kts 11°
2026-05-07 08:34 45.90885 9.04761 14446 ft 362 kts 11°
2026-05-07 08:34 45.93353 9.05543 15055 ft 365 kts 11°
2026-05-07 08:34 45.95847 9.06332 15652 ft 368 kts 11°
2026-05-07 08:35 45.98382 9.06871 16226 ft 370 kts
2026-05-07 08:35 46.00923 9.06741 16803 ft 371 kts 351°
2026-05-07 08:35 46.03494 9.06318 17409 ft 373 kts 351°
2026-05-07 08:35 46.06091 9.05890 18010 ft 377 kts 351°
2026-05-07 08:36 46.08572 9.05481 18556 ft 380 kts 351°
2026-05-07 08:36 46.11205 9.05051 19111 ft 383 kts 351°
2026-05-07 08:36 46.13866 9.04619 19698 ft 385 kts 351°
2026-05-07 08:36 46.16544 9.04185 20285 ft 388 kts 352°
2026-05-07 08:37 46.19239 9.03782 20851 ft 391 kts 352°
2026-05-07 08:37 46.21957 9.03411 21415 ft 394 kts 353°
2026-05-07 08:37 46.24700 9.03063 21951 ft 397 kts 353°
2026-05-07 08:37 46.27458 9.02715 22471 ft 399 kts 353°
2026-05-07 08:38 46.30234 9.02357 22990 ft 402 kts 353°
2026-05-07 08:38 46.33022 9.01993 23493 ft 404 kts 354°
2026-05-07 08:38 46.35837 9.01622 23917 ft 407 kts 353°
2026-05-07 08:38 46.38664 9.01244 24321 ft 409 kts 353°
2026-05-07 08:39 46.41511 9.00862 24725 ft 412 kts 353°
2026-05-07 08:39 46.44375 9.00478 25128 ft 414 kts 353°
2026-05-07 08:39 46.47246 9.00091 25497 ft 416 kts 353°
2026-05-07 08:39 46.50136 8.99695 25862 ft 418 kts 353°
2026-05-07 08:40 46.53040 8.99297 26231 ft 420 kts 353°
2026-05-07 08:40 46.55918 8.98909 26592 ft 423 kts 353°
2026-05-07 08:40 46.58857 8.98512 26947 ft 425 kts 353°
2026-05-07 08:40 46.61813 8.98117 27309 ft 428 kts 353°
2026-05-07 08:41 46.64783 8.97717 27690 ft 429 kts 353°
2026-05-07 08:41 46.67761 8.97310 28066 ft 431 kts 353°
2026-05-07 08:41 46.70754 8.96899 28424 ft 433 kts 353°
2026-05-07 08:41 46.73764 8.96490 28767 ft 436 kts 353°
2026-05-07 08:42 46.76779 8.96083 29223 ft 434 kts 354°
2026-05-07 08:42 46.79783 8.95678 29704 ft 432 kts 354°
2026-05-07 08:42 46.82770 8.95274 30235 ft 430 kts 354°
2026-05-07 08:42 46.85744 8.94873 30662 ft 428 kts 354°
2026-05-07 08:43 46.88712 8.94464 31015 ft 429 kts 354°
2026-05-07 08:43 46.91685 8.94049 31339 ft 430 kts 353°
2026-05-07 08:43 46.94630 8.93643 31645 ft 432 kts 353°
2026-05-07 08:43 46.97614 8.93237 31955 ft 434 kts 353°
2026-05-07 08:44 47.00628 8.92830 32276 ft 435 kts 353°
2026-05-07 08:44 47.03655 8.92417 32594 ft 437 kts 352°
2026-05-07 08:44 47.06683 8.91993 32949 ft 438 kts 352°
2026-05-07 08:44 47.09656 8.91101 33285 ft 436 kts 339°
2026-05-07 08:45 47.12425 8.89326 33593 ft 434 kts 327°
2026-05-07 08:45 47.14862 8.86787 33927 ft 431 kts 315°
2026-05-07 08:45 47.16893 8.83591 34225 ft 427 kts 303°
2026-05-07 08:45 47.18422 8.79874 34499 ft 424 kts 292°
2026-05-07 08:46 47.19494 8.75841 34759 ft 423 kts 288°
2026-05-07 08:46 47.20518 8.71774 35034 ft 424 kts 288°
2026-05-07 08:46 47.21550 8.67710 35321 ft 424 kts 289°
2026-05-07 08:46 47.22583 8.63651 35610 ft 424 kts 289°
2026-05-07 08:47 47.23614 8.59587 35877 ft 424 kts 289°
2026-05-07 08:47 47.24642 8.55521 36015 ft 425 kts 288°
2026-05-07 08:47 47.26719 8.47270 36054 ft 433 kts 288°
2026-05-07 08:48 47.28821 8.38935 36054 ft 435 kts 288°
2026-05-07 08:48 47.30925 8.30574 36040 ft 436 kts 288°
2026-05-07 08:49 47.33001 8.22246 36040 ft 436 kts 288°
2026-05-07 08:49 47.35074 8.13854 36050 ft 436 kts 288°
2026-05-07 08:50 47.37145 8.05457 36058 ft 436 kts 288°
2026-05-07 08:50 47.39215 7.97048 36057 ft 436 kts 288°
2026-05-07 08:51 47.41289 7.88626 36060 ft 436 kts 288°
2026-05-07 08:51 47.43355 7.80197 36065 ft 436 kts 288°
2026-05-07 08:52 47.45403 7.71758 36069 ft 436 kts 288°
2026-05-07 08:52 47.47225 7.63225 36072 ft 435 kts 282°
2026-05-07 08:53 47.48674 7.54537 36073 ft 435 kts 282°
2026-05-07 08:53 47.50131 7.45845 36072 ft 435 kts 283°
2026-05-07 08:54 47.51580 7.37148 36072 ft 436 kts 283°
2026-05-07 08:54 47.53019 7.28439 36073 ft 436 kts 282°
2026-05-07 08:55 47.54441 7.19724 36073 ft 436 kts 282°
2026-05-07 08:55 47.55853 7.11061 36076 ft 436 kts 282°
2026-05-07 08:56 47.57274 7.02343 36072 ft 435 kts 282°
2026-05-07 08:56 47.58689 6.93626 36071 ft 435 kts 282°
2026-05-07 08:57 47.60094 6.84903 36074 ft 435 kts 282°
2026-05-07 08:57 47.61488 6.76166 36072 ft 435 kts 282°
2026-05-07 08:58 47.62879 6.67421 36076 ft 436 kts 282°
2026-05-07 08:58 47.64269 6.58676 36071 ft 436 kts 282°
2026-05-07 08:59 47.65421 6.51409 36067 ft 435 kts 282°
2026-05-07 08:59 47.66795 6.42664 36071 ft 435 kts 282°
2026-05-07 09:00 47.68155 6.33903 36070 ft 435 kts 282°
2026-05-07 09:00 47.69610 6.25179 36073 ft 436 kts 285°
2026-05-07 09:01 47.71452 6.16607 36074 ft 436 kts 288°
2026-05-07 09:01 47.73387 6.08084 36070 ft 436 kts 287°
2026-05-07 09:02 47.75251 5.99517 36061 ft 436 kts 287°
2026-05-07 09:02 47.77038 5.90958 36068 ft 435 kts 286°
2026-05-07 09:03 47.78817 5.82349 36062 ft 435 kts 286°
2026-05-07 09:03 47.80599 5.73746 36064 ft 435 kts 286°
2026-05-07 09:04 47.82386 5.65138 36064 ft 435 kts 287°
2026-05-07 09:04 47.84173 5.56524 36067 ft 435 kts 286°
2026-05-07 09:05 47.85935 5.47953 36068 ft 435 kts 286°
2026-05-07 09:05 47.87688 5.39374 36070 ft 435 kts 286°
2026-05-07 09:06 47.89448 5.30749 36075 ft 435 kts 287°
2026-05-07 09:06 47.92140 5.22700 36068 ft 437 kts 306°
2026-05-07 09:07 47.96152 5.15881 36060 ft 438 kts 311°
2026-05-07 09:07 48.00241 5.09133 36058 ft 438 kts 311°
2026-05-07 09:08 48.04325 5.02366 36068 ft 438 kts 311°
2026-05-07 09:08 48.08401 4.95595 36069 ft 438 kts 311°
2026-05-07 09:09 48.12481 4.88821 36078 ft 438 kts 311°
2026-05-07 09:09 48.16559 4.82040 36069 ft 438 kts 311°
2026-05-07 09:10 48.20602 4.75298 36065 ft 438 kts 311°
2026-05-07 09:10 48.24673 4.68495 36076 ft 439 kts 311°
2026-05-07 09:11 48.28735 4.61670 36077 ft 438 kts 311°
2026-05-07 09:11 48.32782 4.54839 36076 ft 438 kts 310°
2026-05-07 09:12 48.36825 4.47999 36068 ft 438 kts 311°
2026-05-07 09:12 48.40871 4.41152 36069 ft 438 kts 311°
2026-05-07 09:13 48.44930 4.34284 36081 ft 438 kts 311°
2026-05-07 09:13 48.48975 4.27410 36074 ft 438 kts 310°
2026-05-07 09:14 48.53016 4.20525 36080 ft 438 kts 310°
2026-05-07 09:14 48.57020 4.13666 36073 ft 438 kts 310°
2026-05-07 09:15 48.61038 4.06769 36082 ft 438 kts 310°
2026-05-07 09:15 48.65071 3.99848 36080 ft 439 kts 310°
2026-05-07 09:16 48.69097 3.92918 36076 ft 438 kts 310°
2026-05-07 09:16 48.73128 3.85983 36075 ft 439 kts 311°
2026-05-07 09:17 48.77413 3.79389 36069 ft 439 kts 315°
2026-05-07 09:17 48.81837 3.73041 36070 ft 439 kts 315°
2026-05-07 09:18 48.86248 3.66629 36078 ft 439 kts 315°
2026-05-07 09:18 48.90603 3.60118 36070 ft 439 kts 314°
2026-05-07 09:19 48.94914 3.53607 36076 ft 439 kts 314°
2026-05-07 09:19 48.99248 3.47057 36079 ft 439 kts 314°
2026-05-07 09:20 49.03564 3.40547 36083 ft 440 kts 314°
2026-05-07 09:20 49.07915 3.33994 36080 ft 440 kts 314°
2026-05-07 09:21 49.12258 3.27415 36075 ft 440 kts 314°
2026-05-07 09:21 49.16597 3.20810 36078 ft 440 kts 314°
2026-05-07 09:22 49.20930 3.14206 36074 ft 440 kts 314°
2026-05-07 09:22 49.25263 3.07579 36082 ft 440 kts 314°
2026-05-07 09:23 49.29599 3.00940 36086 ft 441 kts 314°
2026-05-07 09:23 49.33927 2.94298 36081 ft 441 kts 314°
2026-05-07 09:24 49.38258 2.87637 36086 ft 441 kts 314°
2026-05-07 09:24 49.42585 2.80970 36089 ft 441 kts 313°
2026-05-07 09:25 49.46905 2.74286 36086 ft 441 kts 313°
2026-05-07 09:25 49.51216 2.67586 36093 ft 441 kts 313°
2026-05-07 09:26 49.55506 2.60873 36095 ft 441 kts 313°
2026-05-07 09:26 49.59814 2.54154 36090 ft 441 kts 315°
2026-05-07 09:27 49.64627 2.48274 36089 ft 442 kts 321°
2026-05-07 09:28 49.71973 2.39646 36088 ft 442 kts 321°
2026-05-07 09:28 49.76862 2.33870 36092 ft 442 kts 321°
2026-05-07 09:29 49.81759 2.28088 36089 ft 443 kts 321°
2026-05-07 09:29 49.86657 2.22297 36091 ft 443 kts 321°
2026-05-07 09:30 49.91551 2.16503 36089 ft 443 kts 321°
2026-05-07 09:30 49.96414 2.10724 36099 ft 443 kts 321°
2026-05-07 09:31 50.01302 2.04889 36090 ft 443 kts 321°
2026-05-07 09:31 50.06186 1.99046 36089 ft 443 kts 321°
2026-05-07 09:32 50.11070 1.93180 36090 ft 443 kts 321°
2026-05-07 09:32 50.15953 1.87295 36091 ft 444 kts 321°
2026-05-07 09:33 50.20468 1.80797 36103 ft 442 kts 314°
2026-05-07 09:33 50.24876 1.74083 36099 ft 442 kts 314°
2026-05-07 09:34 50.29286 1.67372 35757 ft 442 kts 314°
2026-05-07 09:34 50.31483 1.64013 35506 ft 441 kts 314°
2026-05-07 09:34 50.33676 1.60653 35266 ft 441 kts 314°
2026-05-07 09:34 50.35864 1.57295 34783 ft 442 kts 314°
2026-05-07 09:35 50.38070 1.53901 33952 ft 446 kts 314°
2026-05-07 09:35 50.40289 1.50487 32980 ft 449 kts 314°
2026-05-07 09:35 50.42513 1.47061 32149 ft 449 kts 314°
2026-05-07 09:35 50.44734 1.43632 31500 ft 445 kts 314°
2026-05-07 09:36 50.46924 1.40248 30990 ft 439 kts 314°
2026-05-07 09:36 50.49089 1.36904 30434 ft 435 kts 314°
2026-05-07 09:36 50.51209 1.33531 29831 ft 431 kts 312°
2026-05-07 09:36 50.53250 1.30123 29271 ft 425 kts 311°
2026-05-07 09:37 50.55233 1.26714 28729 ft 420 kts 310°
2026-05-07 09:37 50.57172 1.23338 28182 ft 415 kts 310°
2026-05-07 09:37 50.59116 1.20013 27659 ft 411 kts 312°
2026-05-07 09:37 50.61092 1.16798 27130 ft 407 kts 313°
2026-05-07 09:38 50.63059 1.13705 26617 ft 403 kts 314°
2026-05-07 09:38 50.65078 1.10576 26112 ft 400 kts 314°
2026-05-07 09:38 50.67028 1.07554 25614 ft 398 kts 314°
2026-05-07 09:38 50.68987 1.04498 25133 ft 395 kts 314°
2026-05-07 09:39 50.70932 1.01443 24657 ft 393 kts 314°
2026-05-07 09:39 50.72863 0.98388 24184 ft 392 kts 314°
2026-05-07 09:39 50.74782 0.95335 23735 ft 390 kts 314°
2026-05-07 09:39 50.76682 0.92301 23257 ft 387 kts 314°
2026-05-07 09:40 50.78548 0.89319 23105 ft 376 kts 314°
2026-05-07 09:40 50.80360 0.86422 22970 ft 365 kts 314°
2026-05-07 09:40 50.82117 0.83612 22793 ft 351 kts 313°
2026-05-07 09:40 50.83810 0.80899 22344 ft 345 kts 313°
2026-05-07 09:41 50.85483 0.78215 21973 ft 341 kts 313°
2026-05-07 09:41 50.87143 0.75554 21587 ft 338 kts 313°
2026-05-07 09:41 50.88780 0.72924 20956 ft 334 kts 313°
2026-05-07 09:41 50.90327 0.70434 20264 ft 331 kts 313°
2026-05-07 09:42 50.91937 0.67841 19573 ft 328 kts 313°
2026-05-07 09:42 50.93531 0.65271 18976 ft 327 kts 313°
2026-05-07 09:42 50.95129 0.62689 18501 ft 329 kts 313°
2026-05-07 09:42 50.96736 0.60094 18008 ft 330 kts 314°
2026-05-07 09:43 50.98339 0.57510 17655 ft 325 kts 313°
2026-05-07 09:43 50.99915 0.54969 17340 ft 320 kts 313°
2026-05-07 09:43 51.01469 0.52458 16960 ft 318 kts 313°
2026-05-07 09:43 51.03011 0.49955 16583 ft 316 kts 313°
2026-05-07 09:44 51.04523 0.47497 16217 ft 314 kts 313°
2026-05-07 09:44 51.06063 0.44992 15841 ft 312 kts 313°
2026-05-07 09:44 51.07567 0.42572 15436 ft 309 kts 314°
2026-05-07 09:44 51.09093 0.40213 14793 ft 307 kts 315°
2026-05-07 09:45 51.10631 0.37881 14175 ft 304 kts 315°
2026-05-07 09:45 51.12159 0.35579 13559 ft 302 kts 316°
2026-05-07 09:45 51.13676 0.33294 12892 ft 299 kts 316°
2026-05-07 09:45 51.15178 0.31026 12244 ft 296 kts 316°
2026-05-07 09:46 51.16664 0.28767 11613 ft 293 kts 316°
2026-05-07 09:46 51.18120 0.26543 11266 ft 286 kts 316°
2026-05-07 09:46 51.19582 0.24302 10998 ft 296 kts 316°
2026-05-07 09:46 51.21086 0.21990 10567 ft 298 kts 316°
2026-05-07 09:47 51.22555 0.19733 10388 ft 291 kts 316°
2026-05-07 09:47 51.23967 0.17563 10103 ft 288 kts 316°
2026-05-07 09:47 51.25434 0.15303 9783 ft 287 kts 316°
2026-05-07 09:47 51.26841 0.13135 9621 ft 272 kts 316°
2026-05-07 09:48 51.28158 0.11102 9431 ft 256 kts 316°
2026-05-07 09:48 51.29425 0.09150 9015 ft 251 kts 315°
2026-05-07 09:48 51.30674 0.07221 8646 ft 250 kts 315°
2026-05-07 09:48 51.31914 0.05301 8385 ft 248 kts 315°
2026-05-07 09:49 51.32734 0.04033 8198 ft 247 kts 315°
2026-05-07 09:49 51.33961 0.02127 8085 ft 246 kts 314°
2026-05-07 09:49 51.35186 0.00203 8083 ft 248 kts 314°
2026-05-07 09:49 51.36219 -0.01967 8077 ft 244 kts 290°
2026-05-07 09:50 51.36546 -0.04592 8090 ft 240 kts 274°
2026-05-07 09:50 51.36634 -0.07262 8083 ft 240 kts 271°
2026-05-07 09:50 51.36692 -0.09935 8083 ft 241 kts 271°
2026-05-07 09:50 51.36745 -0.12620 8083 ft 241 kts 271°
2026-05-07 09:51 51.36800 -0.15301 8084 ft 241 kts 271°
2026-05-07 09:51 51.36853 -0.17980 8085 ft 242 kts 271°
2026-05-07 09:51 51.36903 -0.20674 8084 ft 242 kts 271°
2026-05-07 09:51 51.36953 -0.23372 8085 ft 242 kts 271°
2026-05-07 09:52 51.37004 -0.26057 8082 ft 241 kts 271°
2026-05-07 09:52 51.37057 -0.28727 8082 ft 241 kts 271°
2026-05-07 09:52 51.37107 -0.31413 8084 ft 242 kts 271°
2026-05-07 09:52 51.37160 -0.34096 8084 ft 240 kts 271°
2026-05-07 09:53 51.37214 -0.36758 8083 ft 240 kts 271°
2026-05-07 09:53 51.37266 -0.39428 8084 ft 240 kts 271°
2026-05-07 09:53 51.37318 -0.42100 8083 ft 241 kts 271°
2026-05-07 09:53 51.37367 -0.44777 8081 ft 240 kts 271°
2026-05-07 09:54 51.37418 -0.47431 7829 ft 238 kts 271°
2026-05-07 09:54 51.37469 -0.50093 7475 ft 240 kts 271°
2026-05-07 09:54 51.37517 -0.52750 7096 ft 237 kts 271°
2026-05-07 09:54 51.37565 -0.55364 6699 ft 232 kts 271°
2026-05-07 09:55 51.37612 -0.57881 6353 ft 226 kts 271°
2026-05-07 09:55 51.37658 -0.60364 5982 ft 220 kts 271°
2026-05-07 09:55 51.37701 -0.62775 5607 ft 214 kts 271°
2026-05-07 09:55 51.37742 -0.65133 5254 ft 209 kts 271°
2026-05-07 09:56 51.37783 -0.67436 4892 ft 204 kts 271°
2026-05-07 09:56 51.37821 -0.69676 4554 ft 198 kts 271°
2026-05-07 09:56 51.37860 -0.71842 4193 ft 191 kts 271°
2026-05-07 09:56 51.37904 -0.73933 3860 ft 184 kts 271°
2026-05-07 09:57 51.37955 -0.75966 3607 ft 182 kts 271°
2026-05-07 09:57 51.38241 -0.77919 3359 ft 183 kts 301°
2026-05-07 09:57 51.39241 -0.79144 3204 ft 189 kts 342°
2026-05-07 09:57 51.40549 -0.79361 3084 ft 191 kts 359°
2026-05-07 09:58 51.41887 -0.79325 3002 ft 192 kts
2026-05-07 09:58 51.43220 -0.79263 3004 ft 192 kts
2026-05-07 09:58 51.44553 -0.79127 2999 ft 193 kts 13°
2026-05-07 09:58 51.45788 -0.78308 3006 ft 194 kts 33°
2026-05-07 09:59 51.46783 -0.76875 3008 ft 193 kts 53°
2026-05-07 09:59 51.47415 -0.75013 3006 ft 190 kts 73°
2026-05-07 09:59 51.47625 -0.72936 3001 ft 189 kts 91°
2026-05-07 09:59 51.47636 -0.70860 2844 ft 182 kts 91°
2026-05-07 10:00 51.47648 -0.68850 2623 ft 178 kts 91°
2026-05-07 10:00 51.47659 -0.66879 2387 ft 175 kts 91°
2026-05-07 10:00 51.47670 -0.64965 2154 ft 173 kts 92°
2026-05-07 10:00 51.47680 -0.63051 1917 ft 169 kts 92°
2026-05-07 10:01 51.47690 -0.61197 1693 ft 164 kts 91°
2026-05-07 10:01 51.47699 -0.59379 1493 ft 161 kts 92°
2026-05-07 10:01 51.47708 -0.57571 1254 ft 161 kts 91°
2026-05-07 10:01 51.47717 -0.55864 1032 ft 146 kts 92°
2026-05-07 10:02 51.47724 -0.54264 830 ft 142 kts 92°
2026-05-07 10:02 51.47732 -0.52696 646 ft 140 kts 92°
2026-05-07 10:02 51.47745 -0.51139 440 ft 139 kts 91°
2026-05-07 10:02 51.47748 -0.49584 244 ft 139 kts 92°
2026-05-07 10:03 51.47752 -0.48029 95 ft 137 kts 91°
2026-05-07 10:03 51.47757 -0.46794 90 ft 72 kts 89°
2026-05-07 10:03 51.47758 -0.46301 88 ft 21 kts 90°
2026-05-07 10:03 51.47684 -0.46122 87 ft 18 kts 146°
2026-05-07 10:04 51.47605 -0.46083 86 ft 12 kts 214°
2026-05-07 10:04 51.47594 -0.46221 90 ft 14 kts 270°
2026-05-07 10:04 51.47594 -0.46396 90 ft 17 kts 268°
2026-05-07 10:04 51.47592 -0.46603 86 ft 20 kts 270°
2026-05-07 10:05 51.47588 -0.46840 86 ft 23 kts 262°
2026-05-07 10:05 51.47582 -0.47107 90 ft 25 kts 270°
2026-05-07 10:05 51.47582 -0.47378 90 ft 21 kts 270°
2026-05-07 10:05 51.47580 -0.47633 88 ft 24 kts 269°
2026-05-07 10:06 51.47579 -0.47915 90 ft 27 kts 270°
2026-05-07 10:06 51.47578 -0.48207 88 ft 22 kts 269°
2026-05-07 10:06 51.47578 -0.48391 86 ft 12 kts 270°
2026-05-07 10:06 51.47522 -0.48476 86 ft 14 kts 180°
2026-05-07 10:07 51.47414 -0.48475 86 ft 17 kts 180°
2026-05-07 10:07 51.47286 -0.48474 86 ft 20 kts 180°
2026-05-07 10:07 51.47140 -0.48472 86 ft 20 kts 179°
2026-05-07 10:07 51.47021 -0.48471 87 ft 18 kts 179°
2026-05-07 10:08 51.46910 -0.48469 89 ft 12 kts 179°
2026-05-07 10:08 51.46877 -0.48564 86 ft 12 kts 269°
2026-05-07 10:08 51.46877 -0.48695 86 ft 8 kts 272°
2026-05-07 10:08 51.46912 -0.48715 86 ft 4 kts 360°
2026-05-07 10:09 51.46929 -0.48715 88 ft 1 kts 359°
2026-05-07 10:09 51.46930 -0.48715 86 ft 0 kts 359°